When you browse on this site, cookies collect data to enhance your experience and personalize the content and advertising you see.
Visit our Privacy Policy to learn more. By continuing to use the site, you agree to this use of cookies and data.
  • en Suisse
  • Liste des pays
  • À 7 jours
  • Température de l'eau
  • Carte satellitaire
  • Carte météo
  • Widgets météo
  • user-avatar
    Se connecter

    Météo par heure à Baraki Barak

    Ce jour, 21 Juillet, Dimanche

    Heure Température Précipitation Vent Pression Humidité
    00:00 +25°C° 0 mm 1 m/s 599 mmHg 47%
    01:00 +24°C° 0 mm 1 m/s 599 mmHg 49%
    02:00 +21°C° 0 mm 0 m/s 598 mmHg 51%
    03:00 +20°C° 0 mm 0 m/s 598 mmHg 53%
    04:00 +22°C° 0 mm 1 m/s 598 mmHg 54%
    05:00 +21°C° 0 mm 1 m/s 598 mmHg 60%
    06:00 +23°C° 0 mm 1 m/s 598 mmHg 51%
    07:00 +24°C° 0 mm 1 m/s 599 mmHg 43%
    08:00 +26°C° 0 mm 1 m/s 600 mmHg 34%
    09:00 +28°C° 0 mm 2 m/s 601 mmHg 28%
    10:00 +30°C° 0 mm 2 m/s 601 mmHg 21%
    11:00 +31°C° 0 mm 3 m/s 601 mmHg 15%
    12:00 +33°C° 0 mm 3 m/s 601 mmHg 13%
    13:00 +34°C° 0 mm 3 m/s 601 mmHg 12%
    14:00 +35°C° 0 mm 4 m/s 602 mmHg 11%
    15:00 +36°C° 0 mm 4 m/s 601 mmHg 10%
    16:00 +36°C° 0 mm 4 m/s 601 mmHg 10%
    17:00 +36°C° 0 mm 4 m/s 600 mmHg 10%
    18:00 +34°C° 0 mm 4 m/s 600 mmHg 13%
    19:00 +33°C° 0 mm 4 m/s 600 mmHg 17%
    20:00 +30°C° 0 mm 4 m/s 600 mmHg 21%
    21:00 +28°C° 0 mm 3 m/s 599 mmHg 29%
    22:00 +27°C° 0 mm 2 m/s 599 mmHg 38%
    23:00 +26°C° 0 mm 1 m/s 599 mmHg 46%

    Demain, 22 Juillet, Lundi

    Heure Température Précipitation Vent Pression Humidité
    00:00 +25°C° 0 mm 1 m/s 598 mmHg 47%
    01:00 +24°C° 0 mm 1 m/s 598 mmHg 47%
    02:00 +23°C° 0 mm 1 m/s 597 mmHg 48%
    03:00 +23°C° 0 mm 1 m/s 597 mmHg 46%
    04:00 +22°C° 0 mm 1 m/s 597 mmHg 44%
    05:00 +21°C° 0 mm 1 m/s 597 mmHg 42%
    06:00 +23°C° 0 mm 1 m/s 598 mmHg 36%
    07:00 +25°C° 0 mm 1 m/s 599 mmHg 30%
    08:00 +27°C° 0 mm 1 m/s 600 mmHg 24%
    09:00 +28°C° 0 mm 1 m/s 600 mmHg 20%
    10:00 +30°C° 0 mm 2 m/s 600 mmHg 16%
    11:00 +32°C° 0 mm 2 m/s 601 mmHg 12%
    12:00 +34°C° 0 mm 2 m/s 601 mmHg 11%
    13:00 +35°C° 0 mm 3 m/s 601 mmHg 10%
    14:00 +36°C° 0 mm 3 m/s 601 mmHg 9%
    15:00 +36°C° 0 mm 4 m/s 600 mmHg 9%
    16:00 +36°C° 0 mm 4 m/s 600 mmHg 9%
    17:00 +36°C° 0 mm 4 m/s 600 mmHg 9%
    18:00 +35°C° 0 mm 4 m/s 600 mmHg 12%
    19:00 +33°C° 0 mm 4 m/s 599 mmHg 15%
    20:00 +30°C° 0 mm 4 m/s 599 mmHg 18%
    21:00 +28°C° 0 mm 3 m/s 598 mmHg 21%
    22:00 +27°C° 0 mm 2 m/s 598 mmHg 24%
    23:00 +26°C° 0 mm 1 m/s 598 mmHg 27%

    Après-demain, 23 Juillet, Mardi

    Heure Température Précipitation Vent Pression Humidité
    00:00 +25°C° 0 mm 1 m/s 598 mmHg 28%
    01:00 +24°C° 0 mm 1 m/s 597 mmHg 29%
    02:00 +23°C° 0 mm 1 m/s 597 mmHg 30%
    03:00 +23°C° 0 mm 1 m/s 596 mmHg 31%
    04:00 +20°C° 0 mm 0 m/s 596 mmHg 31%
    05:00 +19°C° 0 mm 0 m/s 596 mmHg 32%
    06:00 +21°C° 0 mm 0 m/s 597 mmHg 29%
    07:00 +25°C° 0 mm 1 m/s 598 mmHg 25%
    08:00 +27°C° 0 mm 1 m/s 599 mmHg 21%
    09:00 +29°C° 0 mm 1 m/s 599 mmHg 19%
    10:00 +30°C° 0 mm 1 m/s 600 mmHg 17%
    11:00 +32°C° 0 mm 1 m/s 600 mmHg 15%
    12:00 +33°C° 0 mm 1 m/s 600 mmHg 14%
    13:00 +34°C° 0 mm 1 m/s 600 mmHg 12%
    14:00 +37°C° 0 mm 2 m/s 600 mmHg 11%
    15:00 +37°C° 0 mm 2 m/s 600 mmHg 10%
    16:00 +37°C° 0 mm 3 m/s 600 mmHg 10%
    17:00 +38°C° 0 mm 3 m/s 599 mmHg 9%
    18:00 +36°C° 0 mm 4 m/s 599 mmHg 12%
    19:00 +34°C° 0 mm 4 m/s 598 mmHg 14%
    20:00 +32°C° 0 mm 5 m/s 598 mmHg 17%
    21:00 +30°C° 0 mm 3 m/s 598 mmHg 19%
    22:00 +28°C° 0 mm 2 m/s 597 mmHg 22%
    23:00 +27°C° 0 mm 1 m/s 597 mmHg 24%

    24 Juillet, Mercredi

    Heure Température Précipitation Vent Pression Humidité
    00:00 +26°C° 0 mm 1 m/s 597 mmHg 25%
    01:00 +25°C° 0 mm 1 m/s 596 mmHg 26%
    02:00 +24°C° 0 mm 1 m/s 596 mmHg 27%
    03:00 +24°C° 0 mm 1 m/s 595 mmHg 27%
    04:00 +23°C° 0 mm 1 m/s 595 mmHg 28%
    05:00 +20°C° 0 mm 0 m/s 595 mmHg 28%
    06:00 +24°C° 0 mm 1 m/s 596 mmHg 25%
    07:00 +26°C° 0 mm 1 m/s 597 mmHg 21%
    08:00 +28°C° 0 mm 1 m/s 598 mmHg 18%
    09:00 +30°C° 0 mm 1 m/s 598 mmHg 16%
    10:00 +31°C° 0 mm 1 m/s 599 mmHg 14%
    11:00 +34°C° 0 mm 2 m/s 599 mmHg 12%
    12:00 +35°C° 0 mm 2 m/s 599 mmHg 11%
    13:00 +36°C° 0 mm 2 m/s 599 mmHg 10%
    14:00 +38°C° 0 mm 2 m/s 599 mmHg 8%
    15:00 +38°C° 0 mm 3 m/s 599 mmHg 8%
    16:00 +38°C° 0 mm 4 m/s 599 mmHg 8%
    17:00 +40°C° 0 mm 4 m/s 598 mmHg 8%
    18:00 +36°C° 0 mm 4 m/s 598 mmHg 10%
    19:00 +34°C° 0 mm 4 m/s 597 mmHg 12%
    20:00 +32°C° 0 mm 5 m/s 596 mmHg 15%
    21:00 +29°C° 0 mm 3 m/s 596 mmHg 18%
    22:00 +28°C° 0 mm 2 m/s 596 mmHg 22%
    23:00 +27°C° 0 mm 1 m/s 596 mmHg 26%

    25 Juillet, Jeudi

    Heure Température Précipitation Vent Pression Humidité
    00:00 +26°C° 0 mm 1 m/s 596 mmHg 26%
    01:00 +25°C° 0 mm 1 m/s 596 mmHg 27%
    02:00 +25°C° 0 mm 1 m/s 596 mmHg 27%
    03:00 +24°C° 0 mm 1 m/s 595 mmHg 27%
    04:00 +23°C° 0 mm 1 m/s 595 mmHg 27%
    05:00 +20°C° 0 mm 0 m/s 594 mmHg 27%
    06:00 +24°C° 0 mm 1 m/s 596 mmHg 24%
    07:00 +26°C° 0 mm 1 m/s 597 mmHg 20%
    08:00 +28°C° 0 mm 1 m/s 598 mmHg 17%
    09:00 +30°C° 0 mm 1 m/s 598 mmHg 16%
    10:00 +31°C° 0 mm 1 m/s 599 mmHg 14%
    11:00 +34°C° 0 mm 2 m/s 599 mmHg 13%
    12:00 +35°C° 0 mm 2 m/s 599 mmHg 12%
    13:00 +36°C° 0 mm 2 m/s 599 mmHg 11%
    14:00 +37°C° 0 mm 2 m/s 599 mmHg 10%
    15:00 +38°C° 0 mm 2 m/s 599 mmHg 10%
    16:00 +38°C° 0 mm 3 m/s 599 mmHg 10%
    17:00 +38°C° 0 mm 3 m/s 599 mmHg 11%
    18:00 +36°C° 0.1 mm 3 m/s 598 mmHg 18%
    19:00 +34°C° 0.1 mm 3 m/s 598 mmHg 25%
    20:00 +30°C° 0.1 mm 4 m/s 598 mmHg 32%
    21:00 +29°C° 0.1 mm 3 m/s 597 mmHg 37%
    22:00 +28°C° 0.1 mm 2 m/s 597 mmHg 43%
    23:00 +27°C° 0.1 mm 1 m/s 597 mmHg 48%

    26 Juillet, Vendredi

    Heure Température Précipitation Vent Pression Humidité
    00:00 +26°C° 0.1 mm 1 m/s 597 mmHg 51%
    01:00 +25°C° 0.1 mm 1 m/s 596 mmHg 55%
    02:00 +24°C° 0.1 mm 1 m/s 596 mmHg 58%
    03:00 +22°C° 0 mm 0 m/s 596 mmHg 60%
    04:00 +21°C° 0 mm 0 m/s 596 mmHg 62%
    05:00 +21°C° 0 mm 0 m/s 595 mmHg 64%
    06:00 +22°C° 0 mm 0 m/s 596 mmHg 58%
    07:00 +23°C° 0 mm 0 m/s 597 mmHg 53%
    08:00 +27°C° 0 mm 1 m/s 597 mmHg 47%
    09:00 +28°C° 0 mm 1 m/s 598 mmHg 41%
    10:00 +30°C° 0 mm 1 m/s 598 mmHg 34%
    11:00 +31°C° 0 mm 2 m/s 599 mmHg 28%
    12:00 +34°C° 0 mm 2 m/s 599 mmHg 24%
    13:00 +35°C° 0 mm 2 m/s 599 mmHg 20%
    14:00 +36°C° 0 mm 2 m/s 599 mmHg 16%
    15:00 +36°C° 0 mm 3 m/s 599 mmHg 17%
    16:00 +36°C° 0 mm 4 m/s 599 mmHg 18%
    17:00 +36°C° 0 mm 5 m/s 599 mmHg 19%
    18:00 +34°C° 0 mm 4 m/s 598 mmHg 23%
    19:00 +32°C° 0 mm 4 m/s 598 mmHg 26%
    20:00 +30°C° 0 mm 3 m/s 598 mmHg 30%
    21:00 +29°C° 0 mm 3 m/s 598 mmHg 38%
    22:00 +27°C° 0 mm 2 m/s 598 mmHg 45%
    23:00 +26°C° 0 mm 2 m/s 598 mmHg 53%
    Voir plus